Regional Weather Roundup
Issued by NWS Wakefield, VA

Home | Current Version | Previous Version | Graphics & Text | Print | Product List | Glossary On
Versions: 1 2 3 4 5 6 7 8 9 10 11 12 13 14 15 16 17 18 19 20 21 22 23 24 25 26 27 28 29 30 31 32 33 34 35 36 37 38 39 40 41 42 43 44 45 46 47 48 49 50
000
ASUS41 KAKQ 301912
RWRAKQ

REGIONAL WEATHER ROUNDUP
NATIONAL WEATHER SERVICE WAKEFIELD VA
300 PM EDT SUN AUG 30 2015

Note: "fair" indicates few or no clouds below 12,000 feet with no
significant weather and/or obstructions to visibility. * = Denotes
station may not report precipitation (e.g., rain,snow,etc.),
thunder or fog.

VAZ042-051-052>054-056-302000-
NORTHERN VIRGINIA

CITY           SKY/WX    TMP DP  RH WIND       PRES   REMARKS
WASH NATIONAL  PTSUNNY   85  68  56 S7        30.10F
DULLES         PTSUNNY   85  66  53 CALM      30.10F
FORT BELVOIR   MOSUNNY   86  64  48 S6        30.09F
QUANTICO       MOSUNNY   81  68  64 SW6       30.10F
FREDERICKSBRG* SUNNY     90  65  43 S6        30.09F
STAFFORD*      MOSUNNY   86  62  44 S3        30.14F
WARRENTON      MOSUNNY   88  68  51 SE5       30.10F
CULPEPER*      PTSUNNY   85  66  53 CALM      30.11F
MANASSAS*      SUNNY     84  66  54 CALM      30.10F
LEESBURG*      CLOUDY    88  72  58 S8        30.10F
WINCHESTER     PTSUNNY   90  61  37 SE5       30.10F
FRONT ROYAL*   FAIR      86  63  45 SE3       30.09F
LURAY*         FAIR      88  57  35 SW5       30.11F
$$

VAZ048-049-060>072-079>083-302000-
CENTRAL AND SOUTH CENTRAL VIRGINIA

CITY           SKY/WX    TMP DP  RH WIND       PRES   REMARKS
RICHMOND       PTSUNNY   89  61  38 S8        30.10F
CHESTERFIELD*  FAIR      88  59  37 S7        30.12F
PETERSBURG*    PTSUNNY   87  66  49 S3        30.12F
HANOVER        PTSUNNY   87  62  43 VRB3      30.11F
TAPPAHANNOCK*  PTSUNNY   86  60  41 CALM      30.11F
QUINTON*       FAIR      87  63  44 S5        30.11F
CHARLOTTSVILLE PTSUNNY   89  61  38 SE6       30.11F
GORDONSVILLE*  FAIR      87  64  44 CALM      30.10F
ORANGE*        PTSUNNY   88  61  40 CALM      30.12F
LOUISA*        PTSUNNY   90  61  37 NE5       30.09F
BUMPASS*       FAIR      88  64  43 CALM      30.10F
FARMVILLE*     CLOUDY    88  60  38 S9        30.10F
CREWE*         FAIR     N/A N/A N/A CALM      30.11F
FORT PICKETT*  FAIR      84  64  50 SE6       30.12F
CHASE CITY*    CLOUDY    88  64  44 CALM      30.12F
CLARKSVILLE*   FAIR      82  63  51 CALM      30.12F
SOUTH HILL*    CLOUDY    83  63  49 CALM      30.19F
LAWRENCEVILLE* FAIR      84  63  48 CALM      30.13S
EMPORIA*       CLOUDY    84  57  39 CALM      30.13F
$$

VAZ088>098-302000-
SOUTHEAST VIRGINIA

CITY           SKY/WX    TMP DP  RH WIND       PRES   REMARKS
NORFOLK        MOSUNNY   83  60  45 NE9       30.12F
VIRGINIA BEACH PTSUNNY   85  59  41 E10       30.12F
NORFOLK NAVAL  PTSUNNY   85  59  41 E9        30.13F
WEST POINT*    PTSUNNY   90  58  33 S6        30.13F
SALUDA*        FAIR      85  65  51 SW3       30.11F
NEWPORT NEWS   PTSUNNY   86  62  44 SW7       30.11F
LANGLEY AFB    SUNNY     86  61  42 E6        30.11F
FORT EUSTIS    MOSUNNY   86  58  39 S6        30.10F
WILLIAMSBURG*  MOSUNNY   90  63  40 SE5       30.12F
HR EXEC AP*      N/A     88  63  42 E7        30.13F
FRANKLIN*      PTSUNNY   86  59  39 NE6       30.11F
WAKEFIELD      PTSUNNY   88  56  33 CALM      30.11F
$$

VAZ020-022-025-037-045-302000-
WEST CENTRAL AND SOUTHWEST VIRGINIA

CITY           SKY/WX    TMP DP  RH WIND       PRES   REMARKS
STAUNTON*      PTSUNNY   89  55  32 S5        30.15F
WAYNESBORO*    FAIR      86  60  40 SE3       30.15F
HOT SPRINGS VA CLOUDY    71  62  73 SE3       30.28S
LYNCHBURG      CLOUDY    84  62  47 SW6       30.15F
DANVILLE       CLOUDY    84  62  47 NW6       30.13F
SOUTH BOSTON*  FAIR      85  58  39 CALM      30.12F
MARTINSVILLE   CLOUDY    80  65  61 CALM      30.18F
ROANOKE        CLOUDY    84  60  44 NE3       30.17F
BLACKSBURG     CLOUDY    80  64  56 E5        30.24F
DUBLIN*        CLOUDY    79  63  57 CALM      30.22F
MARION*        CLOUDY    75  62  63 CALM      30.25F
HILLSVILLE*    CLOUDY    75  62  63 CALM      30.23F
RICHLANDS*     MOCLDY    75  31  20 NE3       30.23F
WISE*          CLOUDY    73  61  64 N5        30.25F
ABINGDON*      CLOUDY    80  58  48 S7        30.20F
$$

MDZ021>025-VAZ099-100-302000-
SOUTHERN MARYLAND AND THE DELMARVA PENINSULA

CITY           SKY/WX    TMP DP  RH WIND       PRES   REMARKS
PATUXENT RIVER PTSUNNY   85  64  49 S7        30.10F
BAY BRIDGE APT   N/A     81  64  57 S8        30.10F
LEONARDTOWN    MOSUNNY   84  61  45 W7        30.12F
DOVER          PTSUNNY   85  67  54 SW9       30.08F
GEORGETOWN     MOSUNNY   87  63  44 S10       30.10F
EASTON         MOSUNNY   86  64  48 SW12G18   30.14F
CAMBRIDGE      MOSUNNY   84  63  48 S9        30.10F
SALISBURY      MOSUNNY   86  64  47 W9        30.10F
OCEAN CITY     MOSUNNY   85  66  53 S6        30.11F
WALLOPS ISLAND MOSUNNY   83  63  50 S12       30.12F
ACCOMACK*      PTSUNNY   84  68  58 SW3       30.11F
$$

NCZ012>017-030>032-302000-
NORTH CENTRAL AND EASTERN NORTH CAROLINA

CITY           SKY/WX    TMP DP  RH WIND       PRES   REMARKS
ROANOKE RAPIDS FAIR      84  55  37 CALM      30.11F
RALEIGH        CLOUDY    85  58  39 SE3       30.13F
ELIZABETH CITY MOSUNNY   84  66  54 SE10      30.11F
AHOSKIE*       CLOUDY    84  59  43 CALM      30.11F
EDENTON*       MOSUNNY   83  66  55 SE6       30.12S
CURRITUCK*     MOSUNNY   83  64  51 E5        30.13F
KILL DEVIL HLS MOSUNNY   82  69  66 NE5       30.12S
MANTEO         MOSUNNY   79  71  75 NE10      30.13S
CAPE HATTERAS  CLOUDY    82  72  71 NE7       30.11F
TARBORO*       FAIR      88  57  34 CALM      30.12F
GOLDSBORO      PTSUNNY   88  65  46 NE6       30.11F
WASHINGTON     PTSUNNY   86  62  44 NE3       30.12F
GREENVILLE     PTSUNNY   86  63  45 SE5       30.13F
NEW BERN       PTSUNNY   85  62  46 VRB6      30.13F
WILMINGTON     PTSUNNY   82  63  52 SE7       30.14F
$$

VAZ048-302000-
ELSEWHERE

CITY           SKY/WX    TMP DP  RH WIND       PRES   REMARKS
HARRISBURG PA  CLOUDY    85  68  56 S7        30.06F
BALTIMORE      CLOUDY    84  68  58 VRB5      30.08F
ANNAPOLIS      PTSUNNY   81  68  64 SE7       30.09F
ANDREWS AFB    PTSUNNY   87  64  46 VRB6      30.09F
PHILADELPHIA   PTSUNNY   89  63  41 SW12      30.06F
HENDERSON NC   CLOUDY    84  54  35 CALM      30.13F
GREENSBORO     CLOUDY    81  61  50 W6        30.16F
ROCKY MOUNT    CLOUDY    90  56  31 VRB6      30.11F
$$

VAZ100-302000-
MARINE

STATION/POSITION TIME  TEMP    WIND        PRES    WAVE   SWELL
                       AIR SEA DIR/SP/G            HT/PER HT/PER
                 (UTC) (F)     (DEG/KT/KT) (MB)    (FT/S) (FT/S)
15NM E FENWICK I 1850   78 79  200/  8/ 10 1020.0F   3/10   3/10
GOOSES REEF MD   1900   80 79  180/ 10/ 12 1020.1F
POTOMAC MD       1900   81 80  170/ 10/ 12 1018.2F   1/ 2
STINGRAY PT      1900   81 80  160/ 10/ 10 1020.1F   1
JAMESTOWN VA     1900   84 83  110/  6/  8   N/A
CHESAPEAKE LGHT  1800   77      70/  2/  2 1021.4F
CAPE HENRY BUOY  1828      81                N/A     3/10   2/11
1ST LANDING BUOY 1900      80              1019.9F   1/ 5
CAPE CHARLES BUO 1826      82                N/A     3/10   3/10
OFFSHORE WE BUOY 1811      80                N/A     3/11   3/11
64NM E OF VA BCH 1850   78 79   50/  8/  8 1020.0F   4/10   3/10
44100 DUCK FRF   1824      79                N/A     3/10   2/11
44056 DUCK FRF   1811      79                N/A     3/10   2/11
DIAMOND SHLS NC  1850   79 82   40/  8/ 10 1019.8F   3/10   3/10
CAPE LOOKOUT NC  1800   79      60/  3/  4 1020.5S
$$


USA.gov is the U.S. government's official web portal to all federal, state and local government web resources and services.